[[{"header":{"parameterUnit":"m.s-1","parameterCategory":1,"la1":30.2991,"la2":30.254,"lo1":-89.0895,"lo2":-89.0444,"dy":0.0017,"dx":0.0017,"nx":28,"ny":28,"refTime":"2024-07-15T03:00:00:Z","depth":0,"parameterNumber":2,"parameterNumberName":"U-component_of_WINDS"},"data":[0,0,0,0,0,0,0,0,0,0,0,0,0,0,0,0,0,0,0,0,0,0,0,0,0,0,0,0,0,0,0,0,0,0,0,0,0,0,0,0,0,0,0,0,0,0,0,0,0,0,0,0,0,0,0,0,0,0,3.0295,3.0296,0,3.0387,3.0388,3.0389,3.0405,3.0404,3.0403,3.0402,3.0499,3.0503,3.0506,0,0,0,0,0,0,0,0,0,0,0,0,0,3.0133,3.0136,3.0295,3.0296,3.0297,3.0387,3.0388,3.039,3.0405,3.0404,3.0403,3.0402,3.0498,3.0502,3.0506,0,0,0,0,0,0,0,0,0,0,0,0,0,3.0212,3.0137,3.0294,3.0315,3.0318,3.0387,3.0389,3.039,3.0405,3.0404,3.0403,3.0401,3.0497,3.0502,3.0507,3.0562,0,0,3.0522,3.0524,0,0,0,0,0,0,0,0,3.0208,3.0218,3.0311,3.0314,3.0317,3.0383,3.0367,3.0448,3.0405,3.0372,3.0402,3.0401,3.0462,3.047,3.049,3.0567,3.0571,3.0523,3.0526,3.0528,3.0529,0,0,0,0,0,0,0,3.0202,3.0214,3.0331,3.0312,3.0316,3.0321,3.0331,3.0383,3.0423,3.0375,3.0376,3.0387,3.0463,3.0485,3.0492,3.0572,3.0522,3.0527,3.053,3.0532,3.07,3.0701,0,0,0,0,0,0,3.0193,3.021,3.0328,3.0334,3.0258,3.0325,3.0336,3.0363,3.0422,3.043,3.0388,3.0387,3.0477,3.0486,3.0496,3.0565,3.0528,3.0532,3.0535,3.0699,3.07,3.0702,0,0,0,0,0,0,3.0189,3.0203,3.0325,3.0272,3.0288,3.0329,3.036,3.0366,3.0387,3.0432,3.0439,3.0402,3.0476,3.0489,3.0546,3.0568,3.0535,3.0539,3.0697,3.0699,3.0701,3.0703,0,0,0,0,0,0,3.0185,3.0202,3.0223,3.0273,3.0291,3.0372,3.0361,3.0368,3.0396,3.0396,3.0448,3.0455,3.0476,3.0538,3.055,3.0575,3.0543,3.0695,3.0698,3.07,3.0701,3.0705,3.0708,0,0,0,0,0,3.0179,3.022,3.0224,3.0238,3.0318,3.0373,3.0384,3.0407,3.0397,3.0419,3.0448,3.0453,3.0564,3.0544,3.0558,3.0584,3.0694,3.0697,3.07,3.07,3.0704,3.0708,0,0,0,0,0,0,3.0172,3.0227,3.0232,3.029,3.0327,3.0376,3.0404,3.0411,3.0452,3.0451,3.0479,3.049,3.0546,3.0571,3.0547,3.0641,3.0628,3.0634,3.0623,3.0628,3.0631,3.0624,3.0547,0,0,0,0,0,3.0177,3.0217,3.0263,3.031,3.0329,3.0363,3.0388,3.0403,3.0443,3.0458,3.0491,3.053,3.0574,3.0602,3.0645,3.0705,3.0717,3.073,3.0733,3.0736,3.0741,3.0776,3.0782,3.0713,3.0713,3.0713,0,0,3.0189,3.0224,3.0247,3.031,3.034,3.0382,3.0376,3.042,3.0452,3.0466,3.0521,3.0547,3.0592,3.0651,3.0679,3.0673,3.0763,3.074,3.0742,3.0746,3.078,3.0787,3.0792,3.0715,3.0715,3.0714,0,0,3.0231,3.0261,3.0304,3.0334,3.038,3.0403,3.0413,3.0461,3.0478,3.0534,3.0546,3.0584,3.0658,3.069,3.0716,3.0771,3.0778,3.0784,3.0803,3.0837,3.0842,3.0847,3.0867,3.0874,3.0789,3.0789,3.0789,0,3.024,3.0302,3.0325,3.0369,3.0397,3.041,3.0454,3.0483,3.0541,3.056,3.0553,3.0647,3.0678,3.0745,3.0758,3.0779,3.0792,3.0779,3.0839,3.0845,3.085,3.0869,3.0877,3.079,3.079,3.079,3.079,0,3.0311,3.0354,3.0383,3.0438,3.0469,3.0513,3.0543,3.0572,3.0584,3.0607,3.0665,3.0703,3.0754,3.0771,3.0783,3.084,3.0835,3.0833,3.0821,3.0856,3.0875,3.0883,3.0791,3.079,3.079,3.079,0,0,3.0352,3.0418,3.0429,3.0454,3.0506,3.054,3.0585,3.0634,3.0658,3.0698,3.0736,3.0799,3.0798,3.0827,3.0844,3.0873,3.0914,3.0868,3.0869,3.0875,3.098,3.0981,3.0989,3.0919,3.0921,3.0922,3.0976,0,3.0401,3.048,3.0502,3.057,3.061,3.0624,3.0663,3.0699,3.0723,3.0761,3.0788,3.0832,3.0826,3.0844,3.0874,3.0903,3.0936,3.0899,3.0956,3.0958,3.0945,3.0999,3.1001,3.105,3.0984,3.0985,3.0986,0,3.0468,3.0508,3.0579,3.0626,3.0644,3.0679,3.0726,3.0762,3.0804,3.0819,3.0852,3.0866,3.0914,3.0899,3.0966,3.094,3.0965,3.0983,3.0986,3.0992,3.0974,3.1008,3.1067,3.1074,3.0998,3.0997,3.0996,0,3.0491,3.0563,3.0615,3.0637,3.0692,3.0716,3.0741,3.0781,3.081,3.0851,3.087,3.0916,3.0942,3.0978,3.1004,3.0991,3.107,3.1056,3.1084,3.1084,3.1101,3.1099,3.1165,3.1116,3.1116,3.1115,3.1115,0,3.0544,3.0587,3.0627,3.0659,3.0708,3.0733,3.0782,3.0807,3.0843,3.0881,3.0896,3.0931,3.0963,3.1003,3.1024,3.1077,3.1088,3.1103,3.1108,3.1102,3.11,3.1118,3.1116,3.1117,3.1117,3.1117,3.1116,0,3.0579,3.0607,3.0664,3.0712,3.0725,3.076,3.0801,3.0833,3.0857,3.0905,3.0918,3.0955,3.1003,3.1033,3.1094,3.1108,3.1166,3.117,3.1152,3.1154,3.1181,3.1178,3.1261,3.1273,3.1215,3.1216,3.1216,0,3.061,3.0644,3.0695,3.0721,3.0746,3.0788,3.0817,3.0843,3.0872,3.0923,3.0949,3.0998,3.1038,3.1114,3.1148,3.1194,3.12,3.1226,3.1207,3.12,3.1201,3.1199,3.1202,3.1229,3.1229,3.123,3.123,0,3.0664,3.0677,3.0717,3.0762,3.0796,3.0833,3.087,3.0891,3.0924,3.0957,3.1005,3.1036,3.1098,3.1147,3.1197,3.1223,3.1233,3.1235,3.1245,3.1239,3.1227,3.1234,3.1161,3.1234,3.1233,3.1233,3.1233,3.1233,3.0699,3.073,3.0771,3.0815,3.0846,3.088,3.0913,3.0941,3.0981,3.1033,3.1047,3.1098,3.114,3.1207,3.1235,3.1276,3.1272,3.1285,3.1289,3.1292,3.1292,3.122,3.1285,3.1285,3.1285,3.1285,3.1285,0,3.0754,3.0781,3.0822,3.0873,3.0909,3.0913,3.0955,3.0984,3.1029,3.1067,3.1106,3.1162,3.1209,3.1246,3.1295,3.1321,3.1326,3.1333,3.1331,3.1337,3.1293,3.128,3.1327,3.1327,3.1327,3.1327,3.1327,3.1327,3.0787,3.0839,3.0856,3.0924,3.0951,3.1001,3.1024,3.1056,3.1087,3.1149,3.1187,3.1211,3.1249,3.13,3.1344,3.1354,3.1371,3.1377,3.1387,3.1345,3.134,3.1336,3.1324,3.138,3.138,3.1429,3.1429,3.143]},{"header":{"parameterUnit":"m.s-1","parameterCategory":1,"la1":30.2991,"la2":30.254,"lo1":-89.0895,"lo2":-89.0444,"dy":0.0017,"dx":0.0017,"nx":28,"ny":28,"refTime":"2024-07-15T03:00:00:Z","depth":0,"parameterNumber":3,"parameterNumberName":"V-component_of_WINDS"},"data":[0,0,0,0,0,0,0,0,0,0,0,0,0,0,0,0,0,0,0,0,0,0,0,0,0,0,0,0,0,0,0,0,0,0,0,0,0,0,0,0,0,0,0,0,0,0,0,0,0,0,0,0,0,0,0,0,0,0,0.7597,0.7596,0,0.7517,0.7517,0.7516,0.7493,0.7494,0.7494,0.7495,0.741,0.7408,0.7405,0,0,0,0,0,0,0,0,0,0,0,0,0,0.7726,0.7724,0.7597,0.7596,0.7595,0.7518,0.7517,0.7515,0.7493,0.7494,0.7494,0.7495,0.7411,0.7408,0.7405,0,0,0,0,0,0,0,0,0,0,0,0,0,0.766,0.7723,0.7597,0.7575,0.7572,0.7518,0.7516,0.7515,0.7493,0.7494,0.7495,0.7495,0.7412,0.7408,0.7404,0.7366,0,0,0.7392,0.739,0,0,0,0,0,0,0,0,0.7664,0.7656,0.7579,0.7576,0.7573,0.7516,0.7531,0.7465,0.7493,0.7523,0.7495,0.7496,0.7445,0.7438,0.7422,0.7362,0.7358,0.7392,0.7389,0.7388,0.7386,0,0,0,0,0,0,0,0.7669,0.7659,0.7565,0.7578,0.7574,0.7567,0.7559,0.7518,0.7481,0.752,0.7519,0.751,0.7443,0.7426,0.7419,0.7357,0.7392,0.7388,0.7386,0.7384,0.7261,0.726,0,0,0,0,0,0,0.7678,0.7663,0.7568,0.7563,0.7621,0.7565,0.7555,0.7534,0.7481,0.7474,0.7509,0.7509,0.7432,0.7424,0.7416,0.7367,0.7388,0.7384,0.7382,0.7262,0.7261,0.726,0,0,0,0,0,0,0.768,0.7669,0.7571,0.7612,0.7599,0.7562,0.7538,0.7532,0.7514,0.7473,0.7466,0.7498,0.7432,0.7422,0.7379,0.7364,0.7382,0.7378,0.7263,0.7262,0.726,0.7269,0,0,0,0,0,0,0.7684,0.767,0.7656,0.7612,0.7597,0.7536,0.7537,0.753,0.7508,0.7506,0.7461,0.7454,0.7432,0.7385,0.7375,0.7359,0.7375,0.7264,0.7262,0.7261,0.727,0.7268,0.7267,0,0,0,0,0,0.7689,0.7661,0.7656,0.7644,0.7579,0.7535,0.7526,0.7503,0.7507,0.7491,0.7465,0.7455,0.7368,0.7381,0.7369,0.7352,0.7265,0.7263,0.7261,0.7271,0.7269,0.7267,0,0,0,0,0,0,0.7704,0.7655,0.7648,0.7606,0.7575,0.7531,0.7511,0.7501,0.7468,0.7468,0.7439,0.7429,0.7387,0.7365,0.7381,0.7311,0.7316,0.7311,0.7327,0.7325,0.7323,0.7329,0.7372,0,0,0,0,0,0.7702,0.7672,0.7631,0.7597,0.7582,0.755,0.7529,0.7514,0.748,0.7466,0.7437,0.7403,0.7368,0.7345,0.7311,0.7267,0.7256,0.7249,0.7248,0.7247,0.7243,0.7217,0.7213,0.7253,0.7253,0.7253,0,0,0.7698,0.7668,0.765,0.7599,0.7573,0.7541,0.7538,0.7505,0.748,0.7461,0.7418,0.7395,0.7356,0.7312,0.7291,0.7292,0.7229,0.7244,0.7244,0.724,0.7215,0.7211,0.7207,0.7252,0.7252,0.7253,0,0,0.7675,0.765,0.7619,0.7593,0.7554,0.7532,0.7525,0.7483,0.7467,0.7424,0.7409,0.7379,0.7319,0.7291,0.727,0.7235,0.7225,0.7225,0.7216,0.7191,0.7188,0.7185,0.7172,0.7168,0.7222,0.7222,0.7222,0,0.7675,0.7627,0.7604,0.757,0.7548,0.753,0.7498,0.7474,0.7425,0.7409,0.7412,0.7336,0.7308,0.7257,0.7249,0.7232,0.7222,0.723,0.7191,0.7188,0.7184,0.7171,0.7167,0.7222,0.7222,0.7222,0.7222,0,0.7628,0.7594,0.7574,0.7528,0.7504,0.7471,0.7442,0.7419,0.7406,0.7384,0.734,0.7306,0.7264,0.7251,0.7238,0.7198,0.7199,0.7197,0.72,0.7181,0.7168,0.7163,0.7222,0.7222,0.7222,0.7222,0,0,0.761,0.7553,0.7546,0.7524,0.748,0.7453,0.742,0.738,0.736,0.7327,0.7297,0.7247,0.7244,0.7219,0.7203,0.7181,0.7155,0.718,0.7179,0.7176,0.7107,0.7109,0.7104,0.7148,0.7147,0.7146,0.711,0,0.758,0.752,0.7499,0.7449,0.7417,0.74,0.737,0.7339,0.7318,0.7287,0.7263,0.7228,0.7227,0.7212,0.719,0.7163,0.714,0.7165,0.7118,0.7117,0.7128,0.7097,0.7099,0.7066,0.7105,0.7104,0.7104,0,0.7537,0.7505,0.7452,0.7411,0.7397,0.7371,0.7332,0.7303,0.7267,0.7253,0.7226,0.721,0.7173,0.718,0.7127,0.7145,0.7124,0.7108,0.7106,0.71,0.7108,0.7089,0.7056,0.705,0.7096,0.7096,0.7097,0,0.7529,0.7472,0.7432,0.7415,0.7367,0.7349,0.7327,0.7292,0.727,0.7235,0.722,0.7181,0.716,0.713,0.7104,0.7112,0.7053,0.7059,0.7039,0.704,0.7027,0.7028,0.6989,0.7016,0.7016,0.7016,0.7016,0,0.7497,0.7465,0.7428,0.7404,0.7367,0.7342,0.7306,0.7284,0.7253,0.7223,0.7206,0.7178,0.7146,0.7114,0.7094,0.7052,0.7043,0.703,0.7024,0.703,0.7032,0.7016,0.7017,0.7015,0.7015,0.7015,0.7015,0,0.748,0.7455,0.741,0.7369,0.7358,0.7332,0.7296,0.7271,0.7249,0.7212,0.7201,0.7167,0.7128,0.71,0.7049,0.7035,0.6991,0.6986,0.7003,0.7,0.6982,0.6984,0.693,0.6922,0.6956,0.6956,0.6955,0,0.7461,0.7436,0.7392,0.7371,0.7351,0.7318,0.7294,0.7269,0.7245,0.7202,0.7182,0.7142,0.7109,0.7048,0.7017,0.6978,0.6971,0.6955,0.6965,0.6972,0.697,0.6971,0.6968,0.6953,0.6953,0.6953,0.6953,0,0.7429,0.7418,0.7385,0.7349,0.7322,0.7291,0.726,0.7244,0.7212,0.7186,0.7147,0.7121,0.707,0.703,0.6988,0.6965,0.6953,0.695,0.6944,0.6949,0.6959,0.6952,0.6998,0.6951,0.6951,0.6952,0.6952,0.6952,0.741,0.7387,0.7352,0.7316,0.7291,0.7262,0.7237,0.7212,0.7179,0.7136,0.7123,0.7082,0.7046,0.6988,0.6965,0.6931,0.6932,0.6922,0.692,0.6917,0.6917,0.6966,0.6924,0.6924,0.6924,0.6924,0.6924,0,0.7376,0.7353,0.7321,0.7278,0.725,0.7243,0.7208,0.7185,0.7149,0.7117,0.7085,0.7039,0.7001,0.6967,0.6927,0.6906,0.69,0.6896,0.6897,0.6892,0.692,0.6929,0.6902,0.6902,0.6902,0.6902,0.6902,0.6902,0.7355,0.7315,0.73,0.7247,0.7223,0.7184,0.7165,0.7138,0.7112,0.7062,0.703,0.7009,0.6976,0.6933,0.6897,0.6888,0.6873,0.6871,0.6861,0.6887,0.689,0.6892,0.6901,0.6869,0.6868,0.6835,0.6835,0.6835]}]]